Location: Nied?wied?
(53.3665°N, 14.8184°E)
Time: 23:29:44
(UTC+00:00)

Cosmos 1727 Rocket - Pass Details

Date: 03 March 2021
Orbit: 961 x 996 km, 82.9° (Epoch: 12 April)

Event Time Altitude Azimuth Distance (km) Brightness Sun altitude
Rises 18:40:14 0° 350° (N) 3,661 7.3 -18.2°
Reaches altitude 10° 18:42:47 10° 353° (N) 2,711 6.6 -18.6°
Maximum altitude 18:48:56 64° 76° (ENE) 1,063 3.9 -19.5°
Enters shadow 18:52:57 23° 152° (SSE) 1,946 5.2 -20.0°
